Location: Newark
(46.2031°N, 3.4731°E)
Time: 02:13:35
(UTC+00:00)

Envisat - Pass Details

Date: 19 September 2019
Orbit: 764 x 766 km, 98.1° (Epoch: 18 October)

Event Time Altitude Azimuth Distance (km) Brightness Sun altitude
Rises 18:19:49 0° 181° (S) 3,219 6.2 -5.9°
Reaches altitude 10° 18:22:12 10° 187° (S) 2,298 5.5 -6.3°
Maximum altitude 18:27:04 47° 261° (W) 1,014 4.2 -7.1°
Drops below altitude 10° 18:31:59 10° 335° (NNW) 2,314 6.0 -8.0°
Sets 18:34:24 0° 342° (NNW) 3,245 6.7 -8.4°
